Moffett NAS, CA

8:36 PM PDT on March 24, 2017 (GMT -0700)
Moffett Federal Air Field

Weather History for KNUQ - October, 2012

Change the Weather History Date:

Sunday, October 14, 2012

  Actual Average Record
Temperature  
Mean Temperature 65 °F 64 °F  
Max Temperature 71 °F 74 °F 90 °F (2001)
Min Temperature 59 °F 54 °F 44 °F (1960)
Degree Days  
Heating Degree Days 0    
Month to date heating degree days 24  
Since 1 July heating degree days 70  
Cooling Degree Days 0    
Month to date cooling degree days 33  
Year to date cooling degree days 291  
Growing Degree Days 15 (Base 50)    
Moisture  
Dew Point 57 °F    
Average Humidity 77    
Maximum Humidity 93    
Minimum Humidity 61    
Precipitation  
Precipitation 0.00 in 0.02 in 0.62 in (1972)
Month to date precipitation 0.12 0.18  
Year to date precipitation 5.63 10.02  
Since 1 July precipitation 0.12  
Sea Level Pressure  
Sea Level Pressure 30.18 in    
Wind  
Wind Speed 3 mph (NNW)    
Max Wind Speed 12 mph    
Max Gust Speed 15 mph    
Visibility 8 miles    
Events      
T = Trace of Precipitation, MM = Missing Value Source: NWS Daily Summary

Daily Weather History Graph

Daily Weather History Graph

Search for Another Location

Airport or City:

Trip Planner

Search our weather history database for the weather conditions in past years. The results will help you decide how hot, cold, wet, or windy it might be!

Date:

Astronomy

Oct. 14, 2012 Rise Set
Actual Time 7:15 AM PDT 6:31 PM PDT
Civil Twilight 6:49 AM PDT 6:57 PM PDT
Nautical Twilight 6:19 AM PDT 7:28 PM PDT
Astronomical Twilight 5:49 AM PDT 7:58 PM PDT
Moon 6:21 AM PDT (10/14) 5:55 PM PDT (10/14)
Length of Visible Light 12h 08m
Length of Day
11h 15m
Waning Crescent, 1% of the Moon is Illuminated
Oct 14
Waning Crescent
Oct 15
New
Oct 21
First Quarter
Oct 29
Full
Nov 6
Last Quarter

Hourly Weather History & Observations

Time (PDT) Temp. Dew Point Humidity Pressure Visibility Wind Dir Wind Speed Gust Speed Precip Events Conditions
12:56 AM 59.0 °F 55.9 °F 90% 30.22 in 10.0 mi Calm Calm - N/A   Clear
1:56 AM 59.0 °F 55.9 °F 90% 30.23 in 10.0 mi Calm Calm - N/A   Mostly Cloudy
2:06 AM 60.8 °F 57.2 °F 88% 30.22 in 10.0 mi Calm Calm - N/A   Mostly Cloudy
2:56 AM 60.1 °F 57.9 °F 93% 30.22 in 10.0 mi Calm Calm - N/A   Overcast
3:56 AM 61.0 °F 57.9 °F 90% 30.19 in 10.0 mi Calm Calm - N/A   Overcast
4:56 AM 59.0 °F 57.0 °F 93% 30.20 in 7.0 mi ENE 3.5 mph - N/A   Overcast
5:33 AM 59.0 °F 57.2 °F 94% 30.20 in 6.0 mi Calm Calm - N/A   Overcast
5:56 AM 59.0 °F 57.0 °F 93% 30.22 in 6.0 mi NNW 3.5 mph - N/A   Overcast
6:56 AM 59.0 °F 57.0 °F 93% 30.22 in 4.0 mi Calm Calm - N/A   Overcast
7:56 AM 59.0 °F 57.0 °F 93% 30.22 in 3.0 mi Calm Calm - N/A   Overcast
8:02 AM 59.0 °F 57.2 °F 94% 30.22 in 1.8 mi Calm Calm - N/A   Overcast
8:19 AM 59.0 °F 57.2 °F 94% 30.22 in 2.0 mi Calm Calm - N/A   Overcast
8:43 AM 59.0 °F 57.2 °F 94% 30.22 in 1.2 mi Calm Calm - N/A   Overcast
8:56 AM 59.0 °F 57.0 °F 93% 30.23 in 2.0 mi Calm Calm - N/A   Overcast
9:20 AM 59.0 °F 57.2 °F 94% 30.23 in 3.0 mi Calm Calm - N/A   Overcast
9:56 AM 59.0 °F 57.0 °F 93% 30.24 in 5.0 mi Calm Calm - N/A   Overcast
10:56 AM 60.1 °F 57.9 °F 93% 30.23 in 4.0 mi NNW 3.5 mph - N/A   Overcast
11:47 AM 60.8 °F 57.2 °F 88% 30.22 in 8.0 mi Variable 3.5 mph - N/A   Overcast
11:56 AM 61.0 °F 57.9 °F 90% 30.23 in 9.0 mi NNW 4.6 mph - N/A   Overcast
12:56 PM 64.0 °F 57.9 °F 80% 30.20 in 10.0 mi North 3.5 mph - N/A   Overcast
1:04 PM 64.4 °F 57.2 °F 77% 30.19 in 10.0 mi NNE 4.6 mph - N/A   Scattered Clouds
1:56 PM 68.0 °F 57.9 °F 70% 30.17 in 10.0 mi Calm Calm - N/A   Clear
2:56 PM 70.0 °F 57.9 °F 65% 30.14 in 10.0 mi NNW 6.9 mph - N/A   Clear
3:56 PM 70.0 °F 57.0 °F 63% 30.12 in 10.0 mi NNW 9.2 mph - N/A   Clear
4:56 PM 71.1 °F 57.0 °F 61% 30.11 in 10.0 mi NNW 6.9 mph - N/A   Clear
5:56 PM 69.1 °F 59.0 °F 70% 30.10 in 10.0 mi NNW 5.8 mph - N/A   Clear
6:56 PM 66.0 °F 59.0 °F 78% 30.10 in 10.0 mi NNW 8.1 mph - N/A   Clear
7:56 PM - - N/A% 30.12 in 10.0 mi NNW 6.9 mph - N/A   Clear
8:56 PM - - N/A% 30.12 in 10.0 mi NNW 8.1 mph - N/A   Clear
9:56 PM 63.0 °F 57.9 °F 84% 30.12 in 10.0 mi WNW 3.5 mph - N/A   Clear
10:56 PM 61.0 °F 57.9 °F 90% 30.14 in 10.0 mi NNW 3.5 mph - N/A   Clear
11:20 PM 60.8 °F 57.2 °F 88% 30.12 in 10.0 mi Calm Calm - N/A   Scattered Clouds
11:31 PM 60.8 °F 57.2 °F 88% 30.10 in 10.0 mi SE 4.6 mph - N/A   Mostly Cloudy
11:56 PM 60.1 °F 57.9 °F 93% 30.11 in 10.0 mi Calm Calm - N/A   Overcast